Starlink 1752

operational
NORAD ID: 46338 Int'l Des: 2020-062 Owner: SPXS Country: US Constellation: starlink
LEOCIRCULARSTARLINK_TYPE

Über Starlink 1752

Beschreibung wird geladen...

Live-Position

3D-Globus wird geladen...

Nächste Überflüge

Höhenverlauf

Altitude vs Time

uPlot chart will show altitude changes over time

Zweizeiliger Elementsatz

1 46338U 20062P 25257.27101395 .00000093 00000-0 25112-4 0 9990
2 46338 53.0532 88.5938 0001190 96.7285 263.3840 15.06397597277715
Epoch: 14. Sept. 2025 • Age: 25 hours

Aktueller Status

Höhe 562.7 km
Geschwindigkeit 7.58 km/s
Subsatellitenpunkt -43.98°S, 156.15°W
Startdatum 3. Sept. 2020
Alter 5 years
Typ internet

Technische Details

Klassifizierung Payload
Masse 260.00 kg
Trockenmasse 248.00 kg
Gesamtmasse 260.00 kg
Länge 0.20 m
Durchmesser 2.80 m
Spannweite 9.00 m
Form Box + pan
Hersteller SPXS
Bus-Typ Starlink
Phasenstatus In Orbit
Besitzer/Staat SPXS/US

Große Konstellationen

Loading constellations...